Seward, AK

9:30 PM AKDT on September 24, 2016 (GMT -0800)
Seward

Weather History for PAWD - January, 2014

Change the Weather History Date:

Tuesday, January 14, 2014

  Actual Average Record
Temperature  
Mean Temperature 32 °F -  
Max Temperature 39 °F 29 °F 46 °F (1981)
Min Temperature 24 °F 20 °F 1 °F (1951)
Degree Days  
Heating Degree Days 34    
Moisture  
Dew Point 31 °F    
Average Humidity 92    
Maximum Humidity 100    
Minimum Humidity 49    
Precipitation  
Precipitation 0.64 in - - ()
Sea Level Pressure  
Sea Level Pressure 29.01 in    
Wind  
Wind Speed 4 mph (NNE)    
Max Wind Speed 17 mph    
Max Gust Speed 28 mph    
Visibility 7 miles    
Events Rain , Snow    
Averages and records for this station are not official NWS values.
T = Trace of Precipitation, MM = Missing Value Source: NWS Daily Summary

Daily Weather History Graph

Daily Weather History Graph

Search for Another Location

Airport or City:

Trip Planner

Search our weather history database for the weather conditions in past years. The results will help you decide how hot, cold, wet, or windy it might be!

Date:

Astronomy

Jan. 14, 2014 Rise Set
Actual Time 9:47 AM AKST 4:26 PM AKST
Civil Twilight 8:53 AM AKST 5:20 PM AKST
Nautical Twilight 7:59 AM AKST 6:14 PM AKST
Astronomical Twilight 7:09 AM AKST 7:05 PM AKST
Moon 3:51 PM AKST (1/14) 8:19 AM AKST (1/14)
Length of Visible Light 8h 26m
Length of Day
6h 39m
Waxing Gibbous, 98% of the Moon is Illuminated
Jan 14
Waxing Gibbous
Jan 15
Full
Jan 23
Last Quarter
Jan 30
New
Feb 6
First Quarter

Hourly Weather History & Observations

Time (AKST) Temp. Windchill Dew Point Humidity Pressure Visibility Wind Dir Wind Speed Gust Speed Precip Events Conditions
12:53 AM 27.0 °F 21.6 °F 25.0 °F 92% 29.05 in 4.0 mi NE 4.6 mph - 0.00 in   Partly Cloudy
1:05 AM 26.6 °F 21.2 °F 24.8 °F 93% 29.04 in 2.0 mi North 4.6 mph - N/A   Partly Cloudy
1:12 AM 26.6 °F - 24.8 °F 93% 29.04 in 1.0 mi Calm Calm - N/A   Mist
1:24 AM 26.6 °F - 26.6 °F 100% 29.04 in 0.8 mi Calm Calm - N/A   Mist
1:46 AM 24.8 °F 20.5 °F 24.8 °F 100% 29.04 in 0.8 mi NW 3.5 mph - N/A   Mostly Cloudy
1:50 AM 26.6 °F - 24.8 °F 93% 29.04 in 1.2 mi Calm Calm - N/A   Mostly Cloudy
1:53 AM 26.1 °F - 25.0 °F 96% 29.04 in 2.5 mi Calm Calm - N/A   Mostly Cloudy
2:00 AM 24.8 °F 19.1 °F 24.8 °F 100% 29.04 in 9.0 mi WNW 4.6 mph - N/A   Mostly Cloudy
2:53 AM 28.0 °F 22.8 °F 27.0 °F 96% 29.02 in 10.0 mi NW 4.6 mph - N/A   Overcast
3:53 AM 30.0 °F - 28.9 °F 96% 28.99 in 10.0 mi Calm Calm - N/A   Overcast
4:22 AM 32.0 °F 27.5 °F 30.2 °F 93% 28.99 in 2.0 mi East 4.6 mph - 0.00 in Snow Light Snow
4:42 AM 30.2 °F 24.3 °F 30.2 °F 100% 28.97 in 7.0 mi NW 5.8 mph - 0.00 in   Overcast
4:50 AM 30.2 °F 24.3 °F 30.2 °F 100% 28.96 in 10.0 mi NNW 5.8 mph - 0.00 in   Overcast
4:53 AM 30.9 °F 25.2 °F 30.0 °F 96% 28.96 in 10.0 mi North 5.8 mph - 0.00 in   Overcast
5:05 AM 32.0 °F 26.4 °F 30.2 °F 93% 28.95 in 10.0 mi North 5.8 mph - N/A   Overcast
5:53 AM 33.1 °F - 30.9 °F 92% 28.90 in 10.0 mi Calm Calm - 0.00 in Rain Light Freezing Rain
6:01 AM 33.8 °F - 30.2 °F 87% 28.90 in 8.0 mi Calm Calm - 0.00 in Snow Light Snow
6:12 AM 33.8 °F 30.8 °F 32.0 °F 93% 28.89 in 4.0 mi North 3.5 mph - 0.00 in Rain Rain
6:53 AM 33.1 °F - 32.0 °F 96% 28.86 in 5.0 mi Calm Calm - 0.01 in Rain Light Rain
7:03 AM 33.8 °F 30.8 °F 32.0 °F 93% 28.87 in 2.5 mi Variable 3.5 mph - 0.02 in Snow Light Snow
7:20 AM 33.8 °F 27.7 °F 33.8 °F 100% 28.86 in 9.0 mi SE 6.9 mph - 0.04 in Rain Light Rain
7:34 AM 37.4 °F 28.9 °F 33.8 °F 87% 28.86 in 5.0 mi South 13.8 mph 21.9 mph 0.08 in Rain Light Rain
7:41 AM 35.6 °F 27.1 °F 33.8 °F 93% 28.86 in 8.0 mi SSW 12.7 mph 19.6 mph 0.10 in Rain Light Rain
7:53 AM 37.9 °F 32.7 °F 34.0 °F 86% 28.86 in 10.0 mi South 6.9 mph - 0.12 in Rain Light Rain
8:00 AM 39.2 °F 33.6 °F 33.8 °F 81% 28.85 in 10.0 mi SSE 8.1 mph - 0.01 in Rain Light Rain
8:22 AM 37.4 °F 29.3 °F 33.8 °F 87% 28.84 in 7.0 mi SE 12.7 mph 27.6 mph 0.08 in Rain Light Rain
8:45 AM 37.4 °F 29.3 °F 33.8 °F 87% 28.84 in 4.0 mi South 12.7 mph 25.3 mph 0.15 in Rain Rain
8:53 AM 37.0 °F 27.7 °F 34.0 °F 89% 28.83 in 7.0 mi SSW 16.1 mph 25.3 mph 0.18 in Rain Light Rain
9:02 AM 37.4 °F 31.4 °F 33.8 °F 87% 28.82 in 10.0 mi SSW 8.1 mph - 0.02 in   Overcast
9:18 AM 37.4 °F 31.4 °F 33.8 °F 87% 28.82 in 10.0 mi SSE 8.1 mph - 0.04 in Rain Light Rain
9:26 AM 37.4 °F 33.8 °F 33.8 °F 87% 28.83 in 6.0 mi SSE 4.6 mph - 0.06 in Rain Light Rain
9:53 AM 37.0 °F - 35.1 °F 93% 28.83 in 7.0 mi Calm Calm - 0.10 in Rain Light Rain
10:33 AM 37.4 °F 27.8 °F 33.8 °F 87% 28.83 in 10.0 mi SSE 17.3 mph - 0.07 in Rain Light Rain
10:53 AM 37.9 °F 31.5 °F 35.1 °F 89% 28.84 in 3.0 mi South 9.2 mph 24.2 mph 0.13 in Rain Light Rain
11:53 AM 37.9 °F 33.5 °F 34.0 °F 86% 28.85 in 10.0 mi SE 5.8 mph - 0.06 in Rain Light Rain
12:24 PM 35.6 °F - 33.8 °F 93% 28.87 in 6.0 mi Calm Calm - 0.02 in Rain Light Rain
12:46 PM 35.6 °F 30.7 °F 33.8 °F 93% 28.88 in 4.0 mi North 5.8 mph - 0.03 in Rain Light Rain
12:53 PM 35.1 °F 32.2 °F 34.0 °F 96% 28.88 in 6.0 mi NNE 3.5 mph - 0.03 in Rain Light Rain
1:53 PM 35.1 °F 32.2 °F 34.0 °F 96% 28.93 in 10.0 mi NNW 3.5 mph - 0.00 in   Overcast
2:53 PM 36.0 °F - 35.1 °F 97% 29.01 in 10.0 mi Calm Calm - 0.01 in   Overcast
3:07 PM 37.4 °F 33.8 °F 35.6 °F 93% 29.03 in 10.0 mi NW 4.6 mph - N/A   Overcast
3:17 PM 37.4 °F 32.8 °F 35.6 °F 93% 29.04 in 10.0 mi North 5.8 mph - N/A   Mostly Cloudy
3:27 PM 37.4 °F - 35.6 °F 93% 29.07 in 10.0 mi Calm Calm - N/A   Mostly Cloudy
3:53 PM 37.9 °F 31.5 °F 33.1 °F 83% 29.11 in 10.0 mi NNE 9.2 mph - N/A   Overcast
4:53 PM 36.0 °F 31.1 °F 32.0 °F 86% 29.18 in 10.0 mi NE 5.8 mph - N/A   Overcast
5:53 PM 39.9 °F 33.4 °F 21.9 °F 49% 29.26 in 10.0 mi West 10.4 mph 21.9 mph N/A   Overcast
6:53 PM 34.0 °F - 30.0 °F 85% 29.33 in 10.0 mi Calm Calm - N/A   Scattered Clouds
7:53 PM 30.9 °F - 30.0 °F 96% 29.40 in 10.0 mi Calm Calm - N/A   Mostly Cloudy
8:53 PM 30.0 °F - 28.9 °F 96% 29.47 in 10.0 mi Calm Calm - N/A   Scattered Clouds
9:53 PM 30.0 °F - 28.9 °F 96% 29.53 in 10.0 mi Calm Calm - N/A   Mostly Cloudy
10:53 PM 27.0 °F 21.6 °F 26.1 °F 96% 29.58 in 4.0 mi NE 4.6 mph - N/A   Scattered Clouds
11:53 PM 26.1 °F - 25.0 °F 96% 29.62 in 5.0 mi Calm Calm - N/A   Clear